When you browse on this site, cookies collect data to enhance your experience and personalize the content and advertising you see.
Visit our Privacy Policy to learn more. By continuing to use the site, you agree to this use of cookies and data.
  • In Lithuania
  • List of Countries
  • For 7 days
  • Water Temperature
  • Weather Map
  • Weather Widgets
  • user-avatar
    Login

    Hourly Weather Safaga

    Today, 15 November, Friday

    Time Temperature Precipitation Wind Pressure Humidity
    00:00 +20°C° 0 mm 1 mps 704 mmHg 66%
    01:00 +20°C° 0 mm 1 mps 704 mmHg 66%
    02:00 +19°C° 0 mm 1 mps 703 mmHg 69%
    03:00 +19°C° 0 mm 1 mps 703 mmHg 69%
    04:00 +19°C° 0 mm 1 mps 703 mmHg 69%
    05:00 +19°C° 0 mm 1 mps 703 mmHg 69%
    06:00 +21°C° 0 mm 1 mps 704 mmHg 62%
    07:00 +23°C° 0 mm 1 mps 705 mmHg 55%
    08:00 +23°C° 0 mm 0 mps 706 mmHg 49%
    09:00 +27°C° 0 mm 1 mps 706 mmHg 41%
    10:00 +29°C° 0 mm 2 mps 706 mmHg 33%
    11:00 +30°C° 0 mm 3 mps 707 mmHg 24%
    12:00 +31°C° 0 mm 3 mps 706 mmHg 22%
    13:00 +32°C° 0 mm 4 mps 706 mmHg 19%
    14:00 +32°C° 0 mm 5 mps 705 mmHg 18%
    15:00 +29°C° 0 mm 5 mps 705 mmHg 20%
    16:00 +27°C° 0 mm 5 mps 705 mmHg 21%
    17:00 +25°C° 0 mm 5 mps 705 mmHg 23%
    18:00 +23°C° 0 mm 4 mps 704 mmHg 27%
    19:00 +21°C° 0 mm 3 mps 704 mmHg 30%
    20:00 +19°C° 0 mm 2 mps 704 mmHg 34%
    21:00 +18°C° 0 mm 2 mps 704 mmHg 40%
    22:00 +17°C° 0 mm 2 mps 704 mmHg 46%
    23:00 +18°C° 0 mm 1 mps 704 mmHg 52%

    Tomorrow, 16 November, Saturday

    Time Temperature Precipitation Wind Pressure Humidity
    00:00 +16°C° 0 mm 1 mps 704 mmHg 55%
    01:00 +16°C° 0 mm 1 mps 703 mmHg 58%
    02:00 +15°C° 0 mm 1 mps 703 mmHg 60%
    03:00 +14°C° 0 mm 1 mps 703 mmHg 64%
    04:00 +14°C° 0 mm 1 mps 703 mmHg 67%
    05:00 +13°C° 0 mm 1 mps 703 mmHg 71%
    06:00 +15°C° 0 mm 1 mps 703 mmHg 62%
    07:00 +18°C° 0 mm 1 mps 703 mmHg 54%
    08:00 +20°C° 0 mm 1 mps 704 mmHg 45%
    09:00 +22°C° 0 mm 1 mps 704 mmHg 39%
    10:00 +23°C° 0 mm 1 mps 704 mmHg 32%
    11:00 +25°C° 0 mm 1 mps 704 mmHg 26%
    12:00 +26°C° 0 mm 2 mps 704 mmHg 22%
    13:00 +27°C° 0 mm 2 mps 703 mmHg 19%
    14:00 +28°C° 0 mm 3 mps 703 mmHg 16%
    15:00 +26°C° 0 mm 3 mps 702 mmHg 21%
    16:00 +24°C° 0 mm 3 mps 702 mmHg 26%
    17:00 +21°C° 0 mm 3 mps 702 mmHg 31%
    18:00 +19°C° 0 mm 3 mps 702 mmHg 39%
    19:00 +17°C° 0 mm 2 mps 702 mmHg 47%
    20:00 +16°C° 0 mm 1 mps 701 mmHg 54%
    21:00 +15°C° 0 mm 1 mps 701 mmHg 59%
    22:00 +14°C° 0 mm 1 mps 701 mmHg 63%
    23:00 +12°C° 0 mm 0 mps 701 mmHg 68%

    Day after tomorrow, 17 November, Sunday

    Time Temperature Precipitation Wind Pressure Humidity
    00:00 +13°C° 0 mm 1 mps 701 mmHg 69%
    01:00 +13°C° 0 mm 1 mps 701 mmHg 69%
    02:00 +13°C° 0 mm 1 mps 701 mmHg 70%
    03:00 +13°C° 0 mm 1 mps 701 mmHg 71%
    04:00 +12°C° 0 mm 1 mps 701 mmHg 72%
    05:00 +11°C° 0 mm 0 mps 701 mmHg 72%
    06:00 +14°C° 0 mm 1 mps 701 mmHg 63%
    07:00 +16°C° 0 mm 1 mps 702 mmHg 54%
    08:00 +20°C° 0 mm 1 mps 703 mmHg 45%
    09:00 +21°C° 0 mm 1 mps 703 mmHg 43%
    10:00 +23°C° 0 mm 2 mps 703 mmHg 41%
    11:00 +24°C° 0 mm 2 mps 703 mmHg 39%
    12:00 +25°C° 0 mm 3 mps 703 mmHg 37%
    13:00 +25°C° 0 mm 3 mps 702 mmHg 36%
    14:00 +26°C° 0 mm 4 mps 702 mmHg 35%
    15:00 +24°C° 0 mm 3 mps 702 mmHg 43%
    16:00 +21°C° 0 mm 3 mps 702 mmHg 52%
    17:00 +20°C° 0 mm 3 mps 702 mmHg 60%
    18:00 +19°C° 0 mm 2 mps 702 mmHg 66%
    19:00 +18°C° 0 mm 1 mps 702 mmHg 72%
    20:00 +16°C° 0 mm 1 mps 702 mmHg 79%
    21:00 +16°C° 0 mm 1 mps 702 mmHg 76%
    22:00 +16°C° 0 mm 1 mps 702 mmHg 73%
    23:00 +16°C° 0 mm 1 mps 702 mmHg 70%

    18 November, Monday

    Time Temperature Precipitation Wind Pressure Humidity
    00:00 +16°C° 0 mm 1 mps 702 mmHg 67%
    01:00 +16°C° 0 mm 1 mps 702 mmHg 65%
    02:00 +15°C° 0 mm 1 mps 702 mmHg 62%
    03:00 +15°C° 0 mm 1 mps 702 mmHg 63%
    04:00 +15°C° 0 mm 1 mps 702 mmHg 64%
    05:00 +15°C° 0 mm 1 mps 702 mmHg 65%
    06:00 +17°C° 0 mm 2 mps 703 mmHg 62%
    07:00 +19°C° 0 mm 3 mps 703 mmHg 58%
    08:00 +21°C° 0 mm 3 mps 704 mmHg 54%
    09:00 +22°C° 0 mm 4 mps 704 mmHg 50%
    10:00 +25°C° 0 mm 5 mps 705 mmHg 46%
    11:00 +26°C° 0 mm 6 mps 705 mmHg 42%
    12:00 +26°C° 0 mm 6 mps 704 mmHg 43%
    13:00 +26°C° 0 mm 6 mps 704 mmHg 44%
    14:00 +26°C° 0 mm 6 mps 703 mmHg 45%
    15:00 +23°C° 0 mm 6 mps 703 mmHg 50%
    16:00 +22°C° 0 mm 5 mps 703 mmHg 55%
    17:00 +21°C° 0 mm 5 mps 703 mmHg 60%
    18:00 +20°C° 0 mm 4 mps 703 mmHg 62%
    19:00 +19°C° 0 mm 4 mps 703 mmHg 64%
    20:00 +18°C° 0 mm 3 mps 704 mmHg 66%
    21:00 +18°C° 0 mm 3 mps 704 mmHg 61%
    22:00 +18°C° 0 mm 3 mps 704 mmHg 56%
    23:00 +18°C° 0 mm 3 mps 704 mmHg 51%

    19 November, Tuesday

    Time Temperature Precipitation Wind Pressure Humidity
    00:00 +18°C° 0 mm 3 mps 704 mmHg 53%
    01:00 +18°C° 0 mm 4 mps 703 mmHg 54%
    02:00 +18°C° 0 mm 4 mps 703 mmHg 56%
    03:00 +17°C° 0 mm 4 mps 704 mmHg 60%
    04:00 +17°C° 0 mm 4 mps 704 mmHg 64%
    05:00 +17°C° 0 mm 4 mps 704 mmHg 68%
    06:00 +17°C° 0 mm 5 mps 704 mmHg 62%
    07:00 +19°C° 0 mm 5 mps 705 mmHg 56%
    08:00 +20°C° 0 mm 6 mps 706 mmHg 51%
    09:00 +22°C° 0 mm 6 mps 706 mmHg 46%
    10:00 +23°C° 0 mm 6 mps 706 mmHg 41%
    11:00 +26°C° 0 mm 5 mps 706 mmHg 36%
    12:00 +26°C° 0 mm 5 mps 705 mmHg 35%
    13:00 +26°C° 0 mm 5 mps 705 mmHg 34%
    14:00 +27°C° 0 mm 5 mps 704 mmHg 33%
    15:00 +25°C° 0 mm 4 mps 704 mmHg 40%
    16:00 +22°C° 0 mm 4 mps 704 mmHg 48%
    17:00 +20°C° 0 mm 3 mps 703 mmHg 55%
    18:00 +19°C° 0 mm 3 mps 704 mmHg 59%
    19:00 +18°C° 0 mm 3 mps 704 mmHg 62%
    20:00 +17°C° 0 mm 2 mps 704 mmHg 66%
    21:00 +17°C° 0 mm 2 mps 704 mmHg 63%
    22:00 +17°C° 0 mm 2 mps 704 mmHg 59%
    23:00 +17°C° 0 mm 3 mps 704 mmHg 56%

    20 November, Wednesday

    Time Temperature Precipitation Wind Pressure Humidity
    00:00 +17°C° 0 mm 2 mps 704 mmHg 56%
    01:00 +16°C° 0 mm 2 mps 703 mmHg 56%
    02:00 +16°C° 0 mm 2 mps 703 mmHg 56%
    03:00 +16°C° 0 mm 3 mps 703 mmHg 59%
    04:00 +16°C° 0 mm 3 mps 703 mmHg 63%
    05:00 +15°C° 0 mm 4 mps 703 mmHg 66%
    06:00 +17°C° 0 mm 4 mps 704 mmHg 61%
    07:00 +19°C° 0 mm 4 mps 705 mmHg 57%
    08:00 +20°C° 0 mm 4 mps 705 mmHg 52%
    09:00 +22°C° 0 mm 4 mps 705 mmHg 46%
    10:00 +23°C° 0 mm 4 mps 705 mmHg 40%
    11:00 +25°C° 0 mm 4 mps 706 mmHg 33%
    12:00 +26°C° 0 mm 4 mps 705 mmHg 32%
    13:00 +26°C° 0 mm 4 mps 705 mmHg 31%
    14:00 +26°C° 0 mm 4 mps 704 mmHg 30%
    15:00 +25°C° 0 mm 4 mps 704 mmHg 37%
    16:00 +22°C° 0 mm 4 mps 704 mmHg 44%
    17:00 +20°C° 0 mm 4 mps 704 mmHg 51%
    18:00 +19°C° 0 mm 4 mps 704 mmHg 56%
    19:00 +18°C° 0 mm 3 mps 704 mmHg 61%
    20:00 +17°C° 0 mm 2 mps 704 mmHg 66%
    21:00 +17°C° 0 mm 2 mps 704 mmHg 62%
    22:00 +17°C° 0 mm 2 mps 704 mmHg 58%
    23:00 +16°C° 0 mm 2 mps 704 mmHg 55%
    Show more